Theta_e
317 319 319 314 315 313 316 317 315 316 317 317 309 310 311 310 309 309 310 309 310 311 310 309 307 306 304 303 304 303 301 298 298 299 298 297 296 295 294 293 292 292 291 295
318 318 318 317 313 314 316 318 316 316 319 313 306 309 307 308 309 307 309 309 309 309 309 310 306 304 303 302 299 299 301 299 301 301 300 298 297 296 294 292 290 291 289 292
318 318 318 318 313 313 316 317 312 317 317 313 308 307 307 306 307 307 307 307 309 308 308 306 305 304 304 302 300 303 301 297 300 302 302 297 298 297 296 292 288 288 291 291
317 319 318 317 316 312 315 319 315 314 311 310 308 308 306 305 306 306 307 307 308 307 307 308 306 303 302 302 301 300 300 299 299 298 298 298 298 297 296 289 293 289 292 291
316 318 318 316 318 312 315 316 316 315 312 310 309 308 306 307 305 305 307 306 304 307 307 308 306 303 302 303 300 299 298 299 299 299 298 297 297 296 295 295 294 293 292 292
315 317 318 316 318 312 313 316 314 314 309 311 308 307 306 306 304 304 304 304 300 300 300 301 301 302 301 300 299 297 297 297 297 302 298 297 298 297 296 294 294 293 293 292
315 316 318 317 317 313 314 313 315 313 306 309 309 308 306 304 304 303 302 304 301 299 300 299 299 299 298 298 297 298 297 296 294 296 298 302 299 295 295 294 294 293 293 292
316 315 317 318 316 315 315 313 315 315 303 305 305 304 301 301 301 299 300 301 300 300 302 298 302 301 302 299 296 295 297 297 293 297 297 298 296 295 293 292 293 294 293 294
319 315 316 318 316 316 314 313 316 313 309 305 306 303 303 299 296 297 299 299 300 302 303 300 304 307 304 304 300 297 296 294 296 290 295 301 299 294 294 294 294 294 294 294
323 315 315 317 317 316 315 312 314 312 310 306 305 305 303 303 299 295 299 299 300 302 299 301 301 301 301 304 303 301 293 290 294 296 292 297 296 294 295 292 291 294 294 294
323 317 315 316 318 315 316 315 312 313 310 305 305 306 306 304 302 297 298 299 298 299 304 300 299 300 297 300 300 299 299 296 294 290 291 302 295 294 293 292 294 294 294 293
323 321 315 315 317 316 316 314 314 311 311 304 305 306 306 307 306 304 300 304 301 304 301 297 295 299 294 298 303 295 296 298 299 298 298 296 295 295 295 294 293 294 293 292
322 323 316 314 317 316 316 315 314 312 309 303 303 303 304 306 306 305 303 305 304 306 307 302 295 298 294 297 297 297 295 296 293 295 294 294 295 295 294 293 293 293 292 292
321 323 319 314 316 317 315 314 313 312 309 304 300 300 302 304 305 303 306 307 305 306 305 303 293 297 297 296 298 296 295 295 293 293 293 294 294 294 294 293 294 292 292 292
321 322 322 314 316 317 314 311 311 311 311 300 297 298 299 301 303 303 304 305 305 304 303 301 294 297 296 292 292 292 295 293 294 296 296 296 295 294 294 293 293 292 292 292
320 321 322 314 316 316 309 308 308 309 309 309 296 297 297 298 299 301 302 302 303 302 301 297 296 296 297 290 294 298 299 299 299 299 296 297 296 295 293 293 292 293 292 291
317 320 322 314 315 311 308 309 310 309 308 310 294 295 296 297 298 299 299 300 301 301 299 297 295 295 299 288 294 301 299 298 298 298 297 295 295 293 294 292 292 292 291 290
315 319 319 313 309 306 307 311 312 307 309 308 291 288 296 296 297 297 298 298 300 299 297 296 296 293 294 291 298 298 297 297 297 297 297 296 294 293 293 292 292 292 291 290
313 315 313 307 304 304 306 308 308 307 308 306 296 295 295 295 296 296 297 299 295 297 297 295 295 288 291 298 299 297 297 298 297 296 295 294 294 293 292 292 292 291 290 289
312 312 305 303 304 305 305 305 306 306 308 306 298 296 292 297 296 295 298 298 290 292 293 294 289 292 301 301 301 301 298 298 296 295 293 294 294 293 292 292 292 291 290 289
310 305 305 305 305 306 307 306 304 305 301 301 297 296 293 297 296 294 296 291 287 294 294 292 292 294 297 303 301 299 299 298 297 297 297 294 294 293 293 292 292 290 290 289
308 306 303 303 307 308 306 304 301 301 304 298 296 298 299 299 300 299 295 291 290 296 291 289 295 296 302 301 300 298 298 297 296 295 295 294 294 293 293 292 291 290 290 289
307 304 302 301 305 308 309 308 304 302 296 296 297 295 300 299 298 296 292 291 295 292 289 295 296 300 301 301 299 297 297 296 296 294 294 294 293 293 292 292 290 290 290 289
304 301 303 302 307 306 304 309 303 304 301 298 300 297 299 297 295 293 295 288 291 291 295 299 298 302 301 300 299 298 297 296 295 294 294 294 293 293 292 292 290 290 289 289
301 303 306 306 306 304 309 311 307 302 300 301 299 297 299 294 293 288 288 288 292 296 300 297 305 304 302 300 299 298 296 295 295 294 294 294 294 293 292 291 290 290 289 289
302 303 308 305 302 297 302 306 300 300 300 304 305 292 292 289 291 289 297 299 301 301 294 305 304 304 301 300 299 298 296 296 295 294 294 294 294 293 292 290 290 290 289 289
301 306 309 308 306 305 303 305 300 301 303 306 298 301 302 290 289 294 296 300 302 305 305 306 306 306 303 300 299 297 296 295 295 294 294 294 293 292 291 290 290 290 289 289
Wind_Speed
8 5 2 3 9 7 8 5 3 7 7 3 4 3 4 5 3 3 2 4 3 3 3 3 2 2 1 5 3 2 2 4 3 1 1 6 3 3 3 4 5 1 3 5
10 6 4 3 8 8 5 4 4 6 4 4 1 2 3 3 2 2 2 2 2 3 3 4 2 2 1 5 3 1 1 3 3 1 3 1 4 2 4 4 3 3 3 5
12 9 6 4 7 10 5 4 2 3 3 6 8 5 3 3 3 3 4 4 4 4 3 5 5 2 1 1 2 1 0 3 4 5 4 3 2 3 2 4 3 3 5 8
15 12 7 6 5 11 6 3 2 4 2 1 8 5 4 4 3 2 2 3 1 5 4 2 3 2 0 1 1 2 3 3 2 1 2 2 2 3 5 4 4 4 5 5
16 13 10 8 7 11 6 3 5 5 4 11 10 2 4 5 3 2 1 6 2 2 5 3 7 6 4 3 2 2 3 2 2 1 3 3 3 4 6 4 3 5 5 6
17 16 12 9 8 11 5 4 6 4 1 3 4 4 7 7 12 4 2 15 7 6 2 12 14 9 10 6 4 2 2 3 3 0 2 1 5 4 2 1 1 4 3 4
18 18 15 12 11 12 8 8 6 4 1 2 2 6 5 7 2 8 6 6 5 11 23 24 20 20 18 16 13 4 4 3 2 2 2 2 1 2 2 2 2 1 2 6
19 19 17 14 13 13 10 10 6 4 2 8 7 10 15 16 13 8 7 4 12 27 6 4 4 4 4 4 5 7 4 4 3 3 2 5 1 3 4 4 4 2 2 9
20 20 20 17 15 14 13 10 8 4 15 5 10 9 12 5 4 4 5 17 32 8 4 3 4 4 4 1 0 4 6 7 4 3 3 4 2 4 5 7 3 3 1 5
22 21 22 19 17 15 16 12 10 5 6 11 15 5 7 8 8 5 7 11 9 5 2 2 3 3 2 2 4 3 3 3 4 2 2 6 3 10 9 4 4 4 1 5
23 22 23 22 19 16 16 18 14 8 4 15 12 9 11 12 11 5 16 8 4 2 2 3 4 3 5 1 2 4 5 5 3 3 3 4 13 8 5 5 6 3 1 6
24 24 24 24 21 18 17 16 17 14 5 9 12 11 13 12 13 10 29 1 8 13 4 0 4 2 2 3 2 1 1 6 4 7 4 2 20 3 8 6 7 4 2 6
24 25 24 26 23 20 18 19 16 16 8 8 11 9 11 12 13 13 9 7 10 8 5 8 3 3 4 4 5 3 3 5 2 2 3 11 13 10 8 6 6 4 3 5
27 24 25 27 25 22 20 21 18 20 8 7 5 9 10 11 14 15 10 7 13 11 8 3 3 3 7 4 3 3 4 10 5 3 3 9 11 11 12 9 7 4 3 5
28 24 26 29 27 23 20 21 21 23 9 7 8 11 7 8 10 13 9 11 14 12 4 2 2 5 5 2 2 3 13 8 5 5 18 7 15 19 15 12 8 5 3 4
26 25 26 30 28 24 21 11 21 27 16 4 3 6 9 9 9 11 13 14 12 5 3 4 4 4 2 3 4 5 21 14 8 5 21 6 19 20 15 13 9 6 2 4
24 27 27 31 28 24 24 8 10 31 22 6 8 3 9 13 13 11 10 11 7 3 4 2 4 4 5 2 4 6 20 15 13 14 24 22 25 18 18 13 10 6 2 3
21 27 30 31 26 31 28 10 7 33 21 7 6 1 6 14 6 7 7 5 6 4 4 4 3 7 2 3 12 13 21 20 19 24 13 14 22 23 20 15 10 7 3 3
25 25 35 30 27 20 29 17 10 32 10 9 7 8 5 16 7 5 6 5 2 3 3 4 6 0 4 9 20 30 33 26 27 23 13 20 23 24 21 16 12 7 5 4
23 35 21 12 21 19 22 13 15 12 8 6 5 10 3 13 7 4 6 3 2 2 3 7 3 4 22 14 15 28 34 24 31 29 27 27 27 25 22 16 12 8 5 4
39 16 9 27 33 21 13 9 9 11 4 11 9 8 9 12 5 5 5 4 2 3 3 5 3 4 10 25 24 32 33 26 25 22 18 25 23 26 24 19 13 9 6 3
37 16 19 39 15 9 7 6 5 5 9 14 18 14 10 11 9 6 8 3 2 4 12 3 4 5 12 30 33 37 34 28 26 23 23 25 23 22 20 17 14 11 6 4
33 14 11 9 9 6 14 14 5 6 14 18 22 11 12 9 6 7 5 4 4 18 2 4 6 5 21 34 37 38 33 29 28 26 27 26 25 22 19 17 13 10 7 5
11 12 7 6 7 8 6 9 9 12 22 39 37 16 8 7 5 6 6 2 4 1 3 7 4 25 33 37 39 40 39 34 33 32 31 29 27 24 19 15 12 9 7 5
10 9 6 8 9 2 21 32 32 23 45 52 22 14 8 4 5 3 5 3 6 7 6 4 15 34 42 43 42 42 41 39 37 35 34 31 28 25 22 18 14 10 7 5
9 11 5 3 3 1 15 34 21 37 46 39 13 7 5 3 7 5 9 10 8 5 6 14 26 43 46 45 44 42 42 41 39 37 34 32 29 26 22 20 15 12 8 5
7 6 17 17 5 14 15 29 30 47 48 10 7 7 7 8 3 3 6 7 5 11 19 22 36 47 48 45 43 43 43 42 40 37 35 32 29 26 25 22 18 14 11 8
Wind_Direction
208 211 223 199 186 170 161 169 100 149 154 72 54 112 130 129 130 89 86 95 91 105 85 84 121 171 254 355 329 58 354 114 76 63 9 86 71 91 99 109 282 120 154 279
210 208 215 200 191 184 172 144 117 139 172 132 78 104 65 82 121 56 95 101 77 72 110 103 127 156 190 6 49 146 320 30 81 325 326 37 71 45 95 97 75 219 126 278
210 209 212 206 193 186 177 174 81 141 118 110 131 137 139 109 75 95 98 116 108 96 75 31 154 151 232 15 63 52 18 81 137 183 215 149 164 172 122 126 105 212 231 290
207 210 211 208 194 190 177 180 149 146 182 113 123 110 132 129 139 103 135 64 115 146 123 110 137 125 35 12 51 64 88 108 111 103 163 173 238 191 187 169 181 153 275 280
212 212 212 206 199 191 187 185 154 121 88 131 115 93 168 138 147 103 177 132 50 103 137 188 188 139 180 177 130 69 19 155 117 142 232 242 287 259 210 219 182 263 292 305
212 206 212 210 200 188 181 169 151 156 62 114 98 198 170 174 136 55 151 145 105 67 90 103 97 106 108 121 129 126 82 119 89 169 212 344 306 217 184 130 223 220 264 259
215 208 207 212 205 196 188 177 162 152 232 117 170 139 96 124 112 135 116 108 96 130 119 99 90 81 80 76 56 64 119 99 85 164 41 0 218 140 129 143 172 214 313 321
217 209 205 209 210 201 194 183 184 164 104 132 97 110 119 107 98 76 91 76 132 141 121 69 55 357 24 26 35 28 59 113 62 119 182 298 239 193 167 168 231 201 306 327
217 210 205 207 213 207 194 194 192 175 134 226 146 125 155 134 108 59 77 124 148 161 82 81 136 202 212 238 191 63 64 64 110 71 119 205 186 158 139 126 273 166 308 326
214 213 207 205 213 212 203 200 191 168 118 154 159 153 174 151 123 103 132 148 170 193 78 94 144 220 177 193 184 185 23 1 129 155 208 284 208 147 143 69 249 173 308 354
211 213 209 205 209 212 206 207 203 195 139 157 175 163 158 159 163 142 155 118 206 88 126 133 196 151 217 136 170 187 177 144 198 82 57 314 155 129 171 170 138 148 26 357
210 212 210 206 207 210 210 211 207 207 182 153 170 174 178 187 174 147 168 151 165 177 102 177 114 135 128 151 241 53 262 184 182 175 214 146 172 161 157 156 153 150 41 5
205 212 210 205 206 207 211 214 209 195 159 134 156 164 172 177 183 173 165 198 177 192 173 153 151 133 133 155 235 169 246 188 159 67 188 169 173 160 163 154 144 129 44 17
202 213 208 203 205 207 212 215 207 197 161 124 165 179 178 189 187 186 183 178 176 168 159 125 128 135 191 190 170 173 190 156 167 252 177 168 191 188 172 161 154 121 86 18
201 209 208 201 203 205 209 212 209 204 197 141 133 155 160 179 191 197 200 177 170 161 151 102 175 135 139 91 86 241 189 178 170 216 183 169 192 180 173 168 154 130 97 25
205 204 208 200 202 202 192 201 214 210 208 151 120 156 161 156 160 176 174 170 166 164 131 119 139 159 174 117 204 238 193 193 175 161 166 149 154 162 169 164 150 137 98 21
213 202 205 198 200 196 179 192 189 196 197 189 103 125 162 162 152 151 152 163 154 142 115 125 148 153 178 109 211 197 187 188 182 159 154 137 158 166 167 162 154 147 93 30
225 201 195 193 187 185 195 180 173 182 177 184 117 295 153 170 154 136 158 161 148 125 129 141 162 147 173 255 222 173 169 169 169 167 180 178 162 159 162 164 158 156 142 63
225 211 180 169 180 190 200 194 171 174 183 169 145 148 192 167 135 130 149 151 75 155 139 171 168 258 227 227 187 178 174 174 171 172 174 162 163 161 165 165 161 166 135 78
214 184 160 176 182 168 173 156 174 180 219 189 110 133 153 164 142 142 130 133 150 156 225 152 143 254 245 225 206 192 180 178 175 162 160 165 165 169 169 166 162 162 135 92
176 170 199 148 148 146 170 165 170 186 186 179 145 154 134 165 130 143 184 160 182 133 226 147 239 269 230 202 189 187 184 185 187 192 182 179 175 168 168 168 165 158 142 107
182 175 154 146 163 170 148 177 152 197 193 160 144 149 130 142 153 121 166 128 89 206 142 96 254 246 195 177 180 180 183 184 182 181 175 172 172 170 169 167 165 157 151 125
169 162 195 213 165 168 176 183 201 149 161 156 154 135 141 136 148 104 123 110 182 131 78 226 229 199 177 175 176 176 181 181 178 174 175 172 170 172 174 170 168 160 152 139
173 166 212 225 178 219 186 163 141 149 162 154 145 127 133 136 120 140 110 227 122 93 234 229 229 193 176 176 177 175 178 180 179 177 176 175 174 173 174 177 171 166 158 144
186 176 216 227 246 145 155 157 145 154 153 147 126 97 117 124 113 101 114 72 222 212 224 226 203 179 173 176 178 181 178 179 181 179 178 177 176 177 176 176 175 171 169 150
209 206 220 235 123 240 145 151 140 154 154 150 147 118 104 181 136 133 205 149 214 223 215 202 176 174 176 177 180 183 182 181 180 180 180 178 180 181 178 176 178 175 174 166
215 221 227 194 220 186 160 156 151 158 153 167 136 132 180 112 114 214 190 203 197 202 189 184 179 175 177 179 180 184 184 182 181 180 181 182 180 180 182 182 180 180 178 170